Location: Unspecified
(0.0000°N, 0.0000°E)
Time: 13:44:38
(UTC+00:00)

Transit 2A Rocket - Pass Details

Date: 21 November 2019
Orbit: 594 x 909 km, 66.7° (Epoch: 08 December)

Event Time Altitude Azimuth Distance (km) Brightness Sun altitude
Rises 06:43:00 0° 4° (N) 2,978 7.9 13.4°
Reaches altitude 10° 06:45:36 10° 19° (NNE) 2,119 7.3 14.1°
Maximum altitude 06:49:27 24° 72° (ENE) 1,476 7.5 15.0°
Drops below altitude 10° 06:53:34 10° 124° (SE) 2,291 9.5 15.9°
Sets 06:56:30 0° 138° (SE) 3,281 9.4 16.6°
